Location: �clusier
(49.9361°N, 2.7869°E)
Time: 07:48:31
(UTC+00:00)

Cosmos 2278 Rocket - Pass Details

Date: 16 June 2021
Orbit: 840 x 847 km, 71.0° (Epoch: 02 August)

Event Time Altitude Azimuth Distance (km) Brightness Sun altitude
Rises 22:05:29 0° 332° (NNW) 3,411 7.4 -13.1°
Reaches altitude 10° 22:08:02 10° 338° (NNW) 2,474 6.1 -13.3°
Maximum altitude 22:13:32 49° 54° (NE) 1,078 2.8 -13.6°
Enters shadow 22:18:09 15° 126° (SE) 2,155 3.8 -13.9°
